M I D A S
Marine Information and Data Acquisition System
Tripno 748 of the Zeeleeuw from 2004-07-14 06:30:53 to 2004-07-14 14:45:08
Back to CruiseResearch ActivitiesStationsMapUnderway DataData graphs

EquipmentUnitsComments
TimeDGPSUTC
LatitudeDGPSDM.mWGS84
LongitudeDGPSDM.mWGS84
SpeedMeteo Stationm/sRelative wind speed
DirectionMeteo StationdegRelative wind direction
TemperatureMeteo Stationdeg CelciusAir temperature
PressureMeteo StationPaAtmospheric pressure
HumidityMeteo Station%Relative humidity
Missing or incorrect values are displayed as -999
Metereological data collected by the RV Zeeleeuw from 2004-07-14 06:30:53 to 2004-07-14 14:45:08
                                                                                    Next 1000 lines
Time Latitude Longitude Speed Direction Temperature Pressure Humidity
2004-07-14 06:31:00 51°13.606 2°56.058 3.9 149 14.4 101750 84
2004-07-14 06:31:05 51°13.608 2°56.051 5.3 152 14.4 101750 84
2004-07-14 06:31:09 51°13.61 2°56.045 6 167 14.4 101750 84
2004-07-14 06:31:15 51°13.613 2°56.036 4 136 14.4 101760 84
2004-07-14 06:31:20 51°13.615 2°56.028 6.1 167 14.4 101760 84
2004-07-14 06:31:25 51°13.617 2°56.019 3.2 155 14.4 101750 84
2004-07-14 06:31:31 51°13.621 2°56.009 3.7 43 14.4 101750 84
2004-07-14 06:31:35 51°13.623 2°56.002 4.1 153 14.4 101750 84
2004-07-14 06:31:40 51°13.625 2°55.993 4.7 145 14.4 101750 84
2004-07-14 06:31:45 51°13.628 2°55.984 4.2 161 14.4 101760 84
2004-07-14 06:31:49 51°13.63 2°55.976 3.6 179 14.4 101760 84
2004-07-14 06:31:55 51°13.633 2°55.965 2.4 193 14.4 101750 84
2004-07-14 06:32:00 51°13.636 2°55.955 4.3 167 14.4 101750 84
2004-07-14 06:32:05 51°13.638 2°55.946 4.3 164 14.4 101760 84
2004-07-14 06:32:11 51°13.641 2°55.934 7.2 167 14.4 101760 84
2004-07-14 06:32:15 51°13.643 2°55.927 5.7 168 14.4 101760 84
2004-07-14 06:32:20 51°13.646 2°55.917 5.5 154 14.4 101760 84
2004-07-14 06:32:25 51°13.648 2°55.908 5.3 158 14.5 101760 84
2004-07-14 06:32:29 51°13.65 2°55.9 5.2 167 14.5 101760 84
2004-07-14 06:32:35 51°13.653 2°55.888 6.4 147 14.5 101760 84
2004-07-14 06:32:40 51°13.655 2°55.879 7.1 156 14.5 101760 84
2004-07-14 06:32:45 51°13.657 2°55.869 6.6 153 14.5 101750 84
2004-07-14 06:32:51 51°13.659 2°55.857 5.4 162 14.5 101750 84
2004-07-14 06:32:55 51°13.66 2°55.849 5 163 14.5 101750 83
2004-07-14 06:33:00 51°13.661 2°55.839 4.6 183 14.5 101750 83
2004-07-14 06:33:05 51°13.662 2°55.829 4.9 176 14.5 101760 83
2004-07-14 06:33:10 51°13.663 2°55.818 5.5 170 14.5 101760 83
2004-07-14 06:33:15 51°13.663 2°55.808 6.1 176 14.5 101750 83
2004-07-14 06:33:20 51°13.663 2°55.798 5.9 183 14.5 101750 83
2004-07-14 06:33:25 51°13.663 2°55.788 6.2 174 14.5 101750 83
2004-07-14 06:33:29 51°13.663 2°55.781 3.3 188 14.5 101750 83
2004-07-14 06:33:35 51°13.662 2°55.771 4.2 186 14.5 101750 83
2004-07-14 06:33:40 51°13.662 2°55.764 4.3 173 14.5 101750 83
2004-07-14 06:33:45 51°13.662 2°55.759 3.3 185 14.5 101760 83
2004-07-14 06:33:48 51°13.661 2°55.757 2.8 181 14.5 101760 83
2004-07-14 06:33:55 51°13.661 2°55.755 2.9 143 14.5 101750 83
2004-07-14 06:33:59 51°13.662 2°55.755 1.1 227 14.5 101750 83
2004-07-14 06:34:05 51°13.664 2°55.757 1.1 211 14.6 101750 84
2004-07-14 06:34:09 51°13.665 2°55.759 1.7 260 14.6 101750 84
2004-07-14 06:34:15 51°13.669 2°55.762 2.2 270 14.6 101750 83
2004-07-14 06:34:20 51°13.673 2°55.765 2.5 278 14.6 101750 83
2004-07-14 06:34:25 51°13.679 2°55.767 3.2 268 14.6 101750 83
2004-07-14 06:34:29 51°13.683 2°55.768 4.7 282 14.6 101750 83
2004-07-14 06:34:35 51°13.691 2°55.768 3.7 283 14.6 101750 83
2004-07-14 06:34:39 51°13.696 2°55.767 2.8 43 14.6 101750 83
2004-07-14 06:34:45 51°13.705 2°55.763 3.1 332 14.7 101750 83
2004-07-14 06:34:49 51°13.711 2°55.758 3.8 324 14.7 101750 83
2004-07-14 06:34:55 51°13.719 2°55.75 4.1 313 14.7 101750 83
2004-07-14 06:35:00 51°13.726 2°55.743 4.4 301 14.7 101750 83
2004-07-14 06:35:05 51°13.733 2°55.737 4.5 304 14.7 101750 83
2004-07-14 06:35:09 51°13.738 2°55.731 5.2 293 14.7 101750 83
2004-07-14 06:35:13 51°13.744 2°55.724 5.5 285 14.7 101750 83
2004-07-14 06:35:20 51°13.754 2°55.713 4.3 313 14.7 101750 83
2004-07-14 06:35:25 51°13.761 2°55.704 5 281 14.7 101750 83
2004-07-14 06:35:29 51°13.767 2°55.697 5.5 282 14.7 101750 83
2004-07-14 06:35:35 51°13.776 2°55.686 3 226 14.7 101750 83
2004-07-14 06:35:39 51°13.783 2°55.679 2.3 233 14.7 101750 83
2004-07-14 06:35:45 51°13.793 2°55.669 2.2 311 14.7 101750 83
2004-07-14 06:35:50 51°13.801 2°55.66 4.3 351 14.7 101750 83
2004-07-14 06:35:55 51°13.81 2°55.651 5.2 321 14.7 101750 82
2004-07-14 06:36:00 51°13.818 2°55.642 3.9 307 14.7 101750 82
2004-07-14 06:36:05 51°13.827 2°55.634 3.1 275 14.7 101750 82
2004-07-14 06:36:09 51°13.834 2°55.627 4.2 284 14.7 101750 82
2004-07-14 06:36:15 51°13.845 2°55.617 3.1 294 14.7 101750 82
2004-07-14 06:36:19 51°13.853 2°55.611 3.2 297 14.7 101750 82
2004-07-14 06:36:25 51°13.864 2°55.601 3.8 301 14.7 101740 82
2004-07-14 06:36:29 51°13.872 2°55.596 3.6 228 14.7 101740 82
2004-07-14 06:36:33 51°13.879 2°55.59 3 328 14.7 101740 82
2004-07-14 06:36:40 51°13.893 2°55.58 5.2 326 14.7 101740 82
2004-07-14 06:36:45 51°13.903 2°55.573 3.9 317 14.7 101740 82
2004-07-14 06:36:49 51°13.911 2°55.568 4.4 301 14.7 101740 82
2004-07-14 06:36:55 51°13.924 2°55.56 3.8 343 14.7 101740 82
2004-07-14 06:37:00 51°13.934 2°55.553 3.4 336 14.7 101740 82
2004-07-14 06:37:04 51°13.941 2°55.547 2.6 312 14.7 101740 82
2004-07-14 06:37:10 51°13.953 2°55.538 2.9 339 14.7 101740 82
2004-07-14 06:37:15 51°13.963 2°55.531 3.6 301 14.8 101740 82
2004-07-14 06:37:20 51°13.973 2°55.524 4.9 305 14.8 101740 82
2004-07-14 06:37:25 51°13.983 2°55.517 5.5 302 14.8 101740 82
2004-07-14 06:37:29 51°13.991 2°55.511 3.7 311 14.8 101740 82
2004-07-14 06:37:35 51°14.004 2°55.502 3.3 325 14.8 101740 82
2004-07-14 06:37:39 51°14.012 2°55.496 2.6 316 14.8 101740 82
2004-07-14 06:37:44 51°14.022 2°55.489 2.4 39 14.8 101740 82
2004-07-14 06:37:49 51°14.033 2°55.481 2.2 314 14.8 101740 82
2004-07-14 06:37:55 51°14.046 2°55.472 3.2 333 14.8 101740 82
2004-07-14 06:38:00 51°14.057 2°55.465 4 339 14.8 101740 82
2004-07-14 06:38:05 51°14.068 2°55.457 3.9 334 14.8 101740 82
2004-07-14 06:38:09 51°14.078 2°55.45 3.8 328 14.8 101740 82
2004-07-14 06:38:15 51°14.093 2°55.441 4.4 338 14.8 101740 82
2004-07-14 06:38:19 51°14.103 2°55.434 5 340 14.8 101740 82
2004-07-14 06:38:24 51°14.115 2°55.424 7.2 336 14.8 101740 82
2004-07-14 06:38:30 51°14.131 2°55.413 5.8 333 14.8 101740 82
2004-07-14 06:38:35 51°14.143 2°55.403 5 324 14.8 101740 82
2004-07-14 06:38:40 51°14.156 2°55.392 5.9 344 14.8 101740 82
2004-07-14 06:38:45 51°14.169 2°55.38 6.6 332 14.8 101740 81
2004-07-14 06:38:49 51°14.178 2°55.37 7.9 352 14.8 101740 81
2004-07-14 06:38:55 51°14.193 2°55.354 6 338 14.9 101730 81
2004-07-14 06:39:00 51°14.205 2°55.341 7.1 330 14.9 101730 81
2004-07-14 06:39:05 51°14.217 2°55.326 8.1 26 14.9 101730 81
2004-07-14 06:39:10 51°14.228 2°55.31 7.7 320 14.9 101730 81
2004-07-14 06:39:15 51°14.239 2°55.294 9.6 325 14.9 101730 81
2004-07-14 06:39:20 51°14.25 2°55.276 8.2 321 14.9 101730 81
2004-07-14 06:39:24 51°14.259 2°55.262 8 329 14.9 101730 81
2004-07-14 06:39:29 51°14.27 2°55.244 10 316 14.9 101730 81
2004-07-14 06:39:35 51°14.283 2°55.222 10.4 318 14.9 101720 81
2004-07-14 06:39:40 51°14.294 2°55.203 10.4 320 14.9 101720 81
2004-07-14 06:39:45 51°14.304 2°55.183 9.8 318 14.9 101720 81
2004-07-14 06:39:49 51°14.313 2°55.167 8.2 322 14.9 101720 81
2004-07-14 06:39:55 51°14.325 2°55.143 10.3 326 14.9 101720 80
2004-07-14 06:40:00 51°14.336 2°55.122 9.4 22 14.9 101720 80
2004-07-14 06:40:05 51°14.348 2°55.102 10.9 327 14.9 101720 80
2004-07-14 06:40:09 51°14.357 2°55.086 12.1 226 14.9 101720 80
2004-07-14 06:40:15 51°14.37 2°55.06 10.7 312 14.9 101720 80
2004-07-14 06:40:20 51°14.382 2°55.039 12 40 14.9 101720 80
2004-07-14 06:40:25 51°14.393 2°55.017 11.7 313 15 101720 81
2004-07-14 06:40:29 51°14.402 2°54.999 12.3 313 15 101720 81
2004-07-14 06:40:35 51°14.416 2°54.972 12.2 313 15 101720 81
2004-07-14 06:40:39 51°14.425 2°54.954 12.3 227 15 101720 81
2004-07-14 06:40:45 51°14.439 2°54.926 12.2 316 15 101710 81
2004-07-14 06:40:48 51°14.446 2°54.912 11.3 316 15 101710 81
2004-07-14 06:40:55 51°14.461 2°54.88 12.1 319 15 101700 81
2004-07-14 06:41:00 51°14.472 2°54.855 11.3 317 15 101700 81
2004-07-14 06:41:04 51°14.481 2°54.836 11.8 316 15 101700 81
2004-07-14 06:41:09 51°14.492 2°54.813 11.3 315 15 101700 81
2004-07-14 06:41:13 51°14.501 2°54.794 11.5 320 15 101700 81
2004-07-14 06:41:20 51°14.516 2°54.76 12.3 315 15 101700 81
2004-07-14 06:41:24 51°14.525 2°54.741 12.3 319 15 101690 81
2004-07-14 06:41:29 51°14.536 2°54.717 11.8 317 15 101690 81
2004-07-14 06:41:33 51°14.545 2°54.697 11.8 320 15 101690 81
2004-07-14 06:41:39 51°14.558 2°54.668 12.2 321 15 101690 81
2004-07-14 06:41:44 51°14.568 2°54.643 11.6 324 15 101700 81
2004-07-14 06:41:49 51°14.579 2°54.618 11.7 323 15 101700 81
2004-07-14 06:41:53 51°14.587 2°54.598 12.1 322 15 101690 81
2004-07-14 06:41:59 51°14.599 2°54.567 11.2 319 15 101690 81
2004-07-14 06:42:04 51°14.609 2°54.542 11.4 319 15 101690 81
2004-07-14 06:42:09 51°14.619 2°54.517 11.8 325 15 101690 81
2004-07-14 06:42:14 51°14.63 2°54.492 13 325 15 101690 80
2004-07-14 06:42:19 51°14.64 2°54.467 12.3 318 15 101690 80
2004-07-14 06:42:24 51°14.651 2°54.442 14 316 15 101690 80
2004-07-14 06:42:29 51°14.661 2°54.417 11.8 321 15 101690 80
2004-07-14 06:42:34 51°14.672 2°54.392 12 319 15 101700 81
2004-07-14 06:42:39 51°14.682 2°54.366 12.8 327 15 101700 81
2004-07-14 06:42:44 51°14.692 2°54.341 13.3 323 15 101690 81
2004-07-14 06:42:49 51°14.702 2°54.315 12.9 321 15 101690 81
2004-07-14 06:42:53 51°14.71 2°54.295 12.2 319 15 101680 81
2004-07-14 06:42:59 51°14.722 2°54.264 12.1 319 15 101680 81
2004-07-14 06:43:04 51°14.732 2°54.239 12.3 322 15 101690 81
2004-07-14 06:43:10 51°14.743 2°54.208 12.6 321 15 101690 81
2004-07-14 06:43:14 51°14.75 2°54.186 12.7 321 15 101690 81
2004-07-14 06:43:17 51°14.755 2°54.171 12.5 325 15 101690 81
2004-07-14 06:43:24 51°14.767 2°54.133 12.6 325 15 101690 81
2004-07-14 06:43:29 51°14.776 2°54.107 13.3 323 15 101690 81
2004-07-14 06:43:35 51°14.786 2°54.075 13.5 320 15 101690 81
2004-07-14 06:43:40 51°14.794 2°54.048 13.4 325 15 101690 81
2004-07-14 06:43:44 51°14.8 2°54.027 13.7 326 15 101690 81
2004-07-14 06:43:49 51°14.808 2°54 13 319 15 101690 81
2004-07-14 06:43:53 51°14.815 2°53.979 12.6 322 15 101690 81
2004-07-14 06:44:00 51°14.827 2°53.942 13.8 325 15 101690 81
2004-07-14 06:44:04 51°14.834 2°53.92 13.6 327 15 101690 81
2004-07-14 06:44:09 51°14.842 2°53.894 14 328 15 101690 81
2004-07-14 06:44:16 51°14.853 2°53.856 13.9 326 15 101680 81
2004-07-14 06:44:20 51°14.86 2°53.835 13.6 326 15 101680 81
2004-07-14 06:44:23 51°14.865 2°53.819 13.7 327 15 101690 81
2004-07-14 06:44:29 51°14.875 2°53.787 13.4 325 15 101690 81
2004-07-14 06:44:35 51°14.885 2°53.755 13.9 328 15 101700 81
2004-07-14 06:44:39 51°14.891 2°53.734 13.5 326 15 101700 81
2004-07-14 06:44:44 51°14.9 2°53.707 13.2 324 15.1 101690 81
2004-07-14 06:44:50 51°14.91 2°53.675 13.8 325 15.1 101690 81
2004-07-14 06:44:56 51°14.919 2°53.642 14.3 324 15.1 101690 81
2004-07-14 06:45:01 51°14.927 2°53.615 13.6 328 15.1 101690 81
2004-07-14 06:45:04 51°14.932 2°53.599 14.1 328 15.1 101690 81
2004-07-14 06:45:10 51°14.943 2°53.568 13.7 328 15.1 101690 81
2004-07-14 06:45:14 51°14.949 2°53.546 14.6 322 15.1 101700 81
2004-07-14 06:45:20 51°14.96 2°53.514 13.7 320 15.1 101700 81
2004-07-14 06:45:24 51°14.967 2°53.493 13.1 324 15.1 101690 81
2004-07-14 06:45:30 51°14.977 2°53.461 14.2 323 15.1 101690 81
2004-07-14 06:45:36 51°14.987 2°53.429 13.8 328 15 101670 81
2004-07-14 06:45:40 51°14.993 2°53.406 13.3 327 15 101670 81
2004-07-14 06:45:45 51°15.001 2°53.379 13.3 330 15.1 101680 81
2004-07-14 06:45:50 51°15.009 2°53.352 14.8 329 15.1 101680 81
2004-07-14 06:45:54 51°15.015 2°53.33 14.4 328 15.1 101700 81
2004-07-14 06:46:01 51°15.025 2°53.291 14.6 326 15.1 101700 81
2004-07-14 06:46:05 51°15.032 2°53.27 14.9 324 15.1 101680 81
2004-07-14 06:46:08 51°15.036 2°53.254 14.2 323 15.1 101680 81
2004-07-14 06:46:16 51°15.049 2°53.21 14.8 321 15.1 101690 81
2004-07-14 06:46:21 51°15.056 2°53.182 14.3 323 15.1 101690 81
2004-07-14 06:46:24 51°15.061 2°53.166 14.1 320 15 101690 81
2004-07-14 06:46:29 51°15.069 2°53.138 13.6 322 15 101690 81
2004-07-14 06:46:34 51°15.076 2°53.111 13 323 15 101680 81
2004-07-14 06:46:40 51°15.085 2°53.078 13.7 322 15 101680 81
2004-07-14 06:46:45 51°15.092 2°53.05 13.5 328 15 101680 81
2004-07-14 06:46:50 51°15.1 2°53.023 14 329 15 101680 81
2004-07-14 06:46:56 51°15.108 2°52.99 14.4 326 15 101680 81
2004-07-14 06:47:00 51°15.114 2°52.968 15.2 328 15 101680 81
2004-07-14 06:47:04 51°15.12 2°52.945 14.9 327 15.1 101690 81
2004-07-14 06:47:09 51°15.127 2°52.917 13.3 328 15.1 101690 81
2004-07-14 06:47:14 51°15.134 2°52.89 13.1 329 15.1 101680 81
2004-07-14 06:47:21 51°15.144 2°52.851 13.7 334 15.1 101680 81
2004-07-14 06:47:24 51°15.149 2°52.834 14.4 333 15.1 101690 81
2004-07-14 06:47:29 51°15.156 2°52.807 14.5 330 15.1 101690 81
2004-07-14 06:47:34 51°15.163 2°52.779 13.8 334 15.1 101680 81
2004-07-14 06:47:40 51°15.171 2°52.745 15.5 327 15.1 101680 81
2004-07-14 06:47:45 51°15.177 2°52.716 13.8 329 15.1 101690 82
2004-07-14 06:47:50 51°15.183 2°52.687 14.2 334 15.1 101690 82
2004-07-14 06:47:54 51°15.188 2°52.665 15.2 330 15.1 101680 81
2004-07-14 06:48:00 51°15.196 2°52.63 15.5 326 15.1 101680 81
2004-07-14 06:48:05 51°15.202 2°52.601 15.2 327 15.1 101680 81
2004-07-14 06:48:09 51°15.207 2°52.578 14.8 327 15.1 101680 81
2004-07-14 06:48:14 51°15.213 2°52.55 13.5 327 15.1 101690 81
2004-07-14 06:48:20 51°15.22 2°52.515 13.4 327 15.1 101690 81
2004-07-14 06:48:24 51°15.225 2°52.493 14.1 326 15.1 101670 81
2004-07-14 06:48:29 51°15.23 2°52.463 14 333 15.1 101670 81
2004-07-14 06:48:36 51°15.238 2°52.422 14.2 333 15.1 101680 81
2004-07-14 06:48:37 51°15.239 2°52.417 14.3 333 15.1 101680 81
2004-07-14 06:48:44 51°15.245 2°52.376 13.4 335 15.1 101680 81
2004-07-14 06:48:49 51°15.249 2°52.346 15.3 333 15.1 101680 81
2004-07-14 06:48:54 51°15.253 2°52.316 14.9 330 15.1 101680 81
2004-07-14 06:49:00 51°15.257 2°52.28 14.5 339 15.1 101680 81
2004-07-14 06:49:04 51°15.259 2°52.256 16 335 15.1 101670 81
2004-07-14 06:49:09 51°15.262 2°52.226 16.3 335 15.1 101670 81
2004-07-14 06:49:13 51°15.264 2°52.202 16.4 337 15.1 101690 81
2004-07-14 06:49:20 51°15.267 2°52.16 16.1 337 15.1 101690 81
2004-07-14 06:49:23 51°15.268 2°52.141 15.7 338 15.1 101680 82
2004-07-14 06:49:28 51°15.269 2°52.111 15 343 15.1 101680 82
2004-07-14 06:49:36 51°15.269 2°52.062 15 344 15.1 101670 81
2004-07-14 06:49:40 51°15.268 2°52.038 15.3 347 15.1 101670 81
2004-07-14 06:49:44 51°15.267 2°52.013 17 345 15.1 101670 81
2004-07-14 06:49:49 51°15.266 2°51.983 16.9 346 15.1 101670 81
2004-07-14 06:49:54 51°15.265 2°51.952 17.3 346 15.1 101670 82
2004-07-14 06:50:00 51°15.262 2°51.915 17.8 342 15.1 101670 82
2004-07-14 06:50:03 51°15.261 2°51.897 17.1 349 15.1 101680 82
2004-07-14 06:50:09 51°15.259 2°51.861 16.5 352 15.1 101680 82
2004-07-14 06:50:13 51°15.257 2°51.837 16.4 349 15.2 101670 81
2004-07-14 06:50:20 51°15.254 2°51.794 16.1 347 15.2 101670 81
2004-07-14 06:50:24 51°15.251 2°51.77 16 347 15.1 101670 81
2004-07-14 06:50:28 51°15.249 2°51.746 16.3 347 15.1 101670 81
2004-07-14 06:50:36 51°15.245 2°51.697 15.9 348 15.1 101670 81
2004-07-14 06:50:39 51°15.243 2°51.679 16.4 350 15.1 101670 81
2004-07-14 06:50:43 51°15.241 2°51.654 16.7 344 15.1 101680 81
2004-07-14 06:50:50 51°15.237 2°51.612 15.3 349 15.1 101680 81
2004-07-14 06:50:54 51°15.235 2°51.587 17.8 349 15.1 101670 81
2004-07-14 06:51:00 51°15.232 2°51.551 16.1 348 15.1 101670 81
2004-07-14 06:51:03 51°15.23 2°51.533 15.1 353 15.2 101670 81
2004-07-14 06:51:09 51°15.227 2°51.496 15.5 347 15.2 101670 81
2004-07-14 06:51:15 51°15.224 2°51.459 16.7 350 15.2 101670 82
2004-07-14 06:51:20 51°15.222 2°51.429 17.2 347 15.2 101670 82
2004-07-14 06:51:24 51°15.22 2°51.405 15.7 347 15.2 101670 81
2004-07-14 06:51:29 51°15.217 2°51.374 17 346 15.2 101670 81
2004-07-14 06:51:35 51°15.214 2°51.338 16.1 350 15.2 101680 82
2004-07-14 06:51:39 51°15.212 2°51.313 15.7 350 15.2 101680 82
2004-07-14 06:51:48 51°15.207 2°51.259 16.8 352 15.2 101680 82
2004-07-14 06:51:55 51°15.203 2°51.216 16.3 346 15.2 101680 81
2004-07-14 06:51:59 51°15.2 2°51.192 17.1 346 15.2 101680 81
2004-07-14 06:52:04 51°15.197 2°51.162 17 345 15.2 101670 81
2004-07-14 06:52:09 51°15.194 2°51.131 16.9 348 15.2 101670 81
2004-07-14 06:52:14 51°15.191 2°51.101 17 347 15.2 101670 82
2004-07-14 06:52:19 51°15.187 2°51.07 16.8 348 15.2 101670 82
2004-07-14 06:52:24 51°15.185 2°51.04 16.7 345 15.2 101670 82
2004-07-14 06:52:29 51°15.181 2°51.01 16.5 347 15.2 101670 82
2004-07-14 06:52:35 51°15.177 2°50.974 14.3 350 15.2 101680 82
2004-07-14 06:52:39 51°15.175 2°50.949 17 350 15.2 101680 82
2004-07-14 06:52:43 51°15.173 2°50.925 17.3 350 15.2 101670 81
2004-07-14 06:52:49 51°15.169 2°50.889 16.7 350 15.2 101670 81
2004-07-14 06:52:54 51°15.167 2°50.859 16.1 346 15.2 101670 81
2004-07-14 06:52:59 51°15.163 2°50.828 16.7 347 15.2 101670 81
2004-07-14 06:53:04 51°15.16 2°50.798 17.2 346 15.2 101680 82
2004-07-14 06:53:10 51°15.156 2°50.762 15.3 349 15.2 101680 82
2004-07-14 06:53:14 51°15.154 2°50.738 16.5 345 15.2 101660 81
2004-07-14 06:53:20 51°15.15 2°50.702 17.3 348 15.2 101660 81
2004-07-14 06:53:25 51°15.147 2°50.671 16.9 346 15.2 101680 81
2004-07-14 06:53:30 51°15.144 2°50.641 16.1 351 15.2 101680 81
2004-07-14 06:53:36 51°15.139 2°50.605 17.1 346 15.2 101670 81
2004-07-14 06:53:40 51°15.136 2°50.581 17.3 347 15.2 101670 81
2004-07-14 06:53:44 51°15.133 2°50.557 17.2 348 15.2 101670 81
2004-07-14 06:53:50 51°15.128 2°50.522 17 346 15.2 101670 81
2004-07-14 06:53:54 51°15.124 2°50.498 17.2 347 15.2 101660 81
2004-07-14 06:54:01 51°15.117 2°50.457 16.3 350 15.2 101660 81
2004-07-14 06:54:06 51°15.112 2°50.427 16.5 347 15.2 101660 81
2004-07-14 06:54:10 51°15.108 2°50.403 15.9 350 15.2 101660 81
2004-07-14 06:54:14 51°15.104 2°50.379 15.9 352 15.2 101670 81
2004-07-14 06:54:19 51°15.099 2°50.35 16.7 350 15.2 101670 81
2004-07-14 06:54:22 51°15.097 2°50.332 15.2 350 15.2 101670 81
2004-07-14 06:54:33 51°15.086 2°50.267 15.5 342 15.2 101660 81
2004-07-14 06:54:40 51°15.079 2°50.225 15.6 352 15.2 101660 81
2004-07-14 06:54:44 51°15.075 2°50.201 15.9 352 15.2 101680 81
2004-07-14 06:54:48 51°15.072 2°50.177 17.5 343 15.2 101680 81
2004-07-14 06:54:53 51°15.066 2°50.148 17.8 350 15.2 101670 81
2004-07-14 06:54:58 51°15.062 2°50.118 17.4 350 15.2 101670 81
2004-07-14 06:55:04 51°15.056 2°50.082 17.4 346 15.2 101680 82
2004-07-14 06:55:09 51°15.052 2°50.052 17.1   15.2 101680 82
2004-07-14 06:55:13 51°15.048 2°50.028 16.5 346 15.2 101670 82
2004-07-14 06:55:17 51°15.045 2°50.004 16.9 346 15.2 101670 82
2004-07-14 06:55:24 51°15.04 2°49.961 15.8 346 15.2 101650 81
2004-07-14 06:55:29 51°15.037 2°49.931 16.7 346 15.2 101650 81
2004-07-14 06:55:34 51°15.033 2°49.901 15.5 349 15.2 101670 81
2004-07-14 06:55:40 51°15.03 2°49.865 15.3 347 15.2 101670 81
2004-07-14 06:55:44 51°15.026 2°49.84 14.9 350 15.2 101660 82
2004-07-14 06:55:50 51°15.023 2°49.804 14.7 347 15.2 101660 82
2004-07-14 06:55:53 51°15.02 2°49.786 14.9 348 15.3 101670 82
2004-07-14 06:56:00 51°15.016 2°49.743 16.3 344 15.3 101670 82
2004-07-14 06:56:04 51°15.013 2°49.719 15.1 343 15.3 101680 82
2004-07-14 06:56:09 51°15.01 2°49.689 16   15.3 101680 82
2004-07-14 06:56:14 51°15.006 2°49.658 15.1 350 15.2 101670 82
2004-07-14 06:56:20 51°15.002 2°49.622 16.6 344 15.2 101670 82
2004-07-14 06:56:24 51°15 2°49.598 17.4 344 15.3 101670 82
2004-07-14 06:56:29 51°14.996 2°49.568 16.4 344 15.3 101670 82
2004-07-14 06:56:33 51°14.993 2°49.543 18 342 15.3 101660 82
2004-07-14 06:56:40 51°14.989 2°49.501 16.7 346 15.3 101660 82
2004-07-14 06:56:44 51°14.986 2°49.477 16.5 349 15.3 101670 82
2004-07-14 06:56:50 51°14.982 2°49.441 17.8 345 15.3 101670 82
2004-07-14 06:56:53 51°14.98 2°49.423 16.7 346 15.3 101660 82
2004-07-14 06:57:00 51°14.976 2°49.38 17.1 347 15.3 101660 82
2004-07-14 06:57:04 51°14.973 2°49.356 16.7 345 15.3 101670 82
2004-07-14 06:57:09 51°14.97 2°49.326 15.8   15.3 101670 82
2004-07-14 06:57:14 51°14.966 2°49.296 15.9 343 15.2 101660 81
2004-07-14 06:57:20 51°14.963 2°49.26 16.2 348 15.2 101660 81
2004-07-14 06:57:24 51°14.96 2°49.236 16.7 344 15.2 101660 81
2004-07-14 06:57:28 51°14.958 2°49.212 15.1 347 15.2 101660 81
2004-07-14 06:57:36 51°14.952 2°49.163 16.7 347 15.2 101660 81
2004-07-14 06:57:42 51°14.949 2°49.128 16.7 345 15.2 101660 81
2004-07-14 06:57:48 51°14.944 2°49.092 15.8 344 15.2 101670 82
2004-07-14 06:57:49 51°14.944 2°49.086 16.4 345 15.2 101670 82
2004-07-14 06:57:56 51°14.94 2°49.043 15.7 346 15.2 101660 82
2004-07-14 06:58:01 51°14.936 2°49.013 14.5 347 15.2 101660 82
2004-07-14 06:58:08 51°14.931 2°48.971 14.2 348 15.2 101660 82
2004-07-14 06:58:12 51°14.929 2°48.947 16.5 349 15.2 101660 82
2004-07-14 06:58:17 51°14.926 2°48.918 17.1 350 15.2 101660 81
2004-07-14 06:58:22 51°14.922 2°48.888 15.6 349 15.2 101660 81
2004-07-14 06:58:28 51°14.918 2°48.852 15.7 346 15.2 101670 82
2004-07-14 06:58:32 51°14.916 2°48.828 16.4 347 15.2 101670 82
2004-07-14 06:58:38 51°14.912 2°48.792 16.8 345 15.2 101670 82
2004-07-14 06:58:42 51°14.909 2°48.768 16.2 345 15.2 101670 82
2004-07-14 06:58:48 51°14.905 2°48.733 16.5 344 15.2 101660 81
2004-07-14 06:58:52 51°14.903 2°48.709 16.1 345 15.2 101660 81
2004-07-14 06:58:57 51°14.9 2°48.679 16.2 348 15.2 101660 81
2004-07-14 06:59:02 51°14.896 2°48.649 15.4 347 15.2 101660 81
2004-07-14 06:59:06 51°14.894 2°48.625 14.6 348 15.2 101650 81
2004-07-14 06:59:12 51°14.89 2°48.59 15.1 345 15.2 101650 81
2004-07-14 06:59:17 51°14.887 2°48.56 15.3 342 15.2 101670 81
2004-07-14 06:59:22 51°14.883 2°48.53 15.9 345 15.2 101670 81
2004-07-14 06:59:26 51°14.881 2°48.506 15.9 349 15.2 101670 82
2004-07-14 06:59:30 51°14.879 2°48.482 15.4 350 15.2 101670 82
2004-07-14 06:59:38 51°14.874 2°48.435 15.5 351 15.2 101660 82
2004-07-14 06:59:42 51°14.87 2°48.411 16.8 349 15.2 101660 82
2004-07-14 06:59:48 51°14.867 2°48.375 14.9 348 15.2 101670 82
2004-07-14 06:59:52 51°14.864 2°48.351 14.5 349 15.2 101670 82
2004-07-14 06:59:57 51°14.861 2°48.321 15.5 349 15.2 101690 82
2004-07-14 07:00:02 51°14.858 2°48.292 16.5 347 15.2 101690 82
2004-07-14 07:00:08 51°14.854 2°48.256 15.6 346 15.2 101680 82
2004-07-14 07:00:13 51°14.851 2°48.226 15.3 348 15.2 101680 82
2004-07-14 07:00:17 51°14.849 2°48.202 15.2 349 15.2 101670 82
2004-07-14 07:00:22 51°14.845 2°48.173 14.5 346 15.2 101670 82
2004-07-14 07:00:28 51°14.842 2°48.137 16 346 15.2 101670 82
2004-07-14 07:00:33 51°14.839 2°48.107 15.6 347 15.2 101670 82
2004-07-14 07:00:36 51°14.837 2°48.089 15.2 349 15.2 101670 82
2004-07-14 07:00:41 51°14.834 2°48.059 15.6 340 15.2 101670 82
2004-07-14 07:00:46 51°14.83 2°48.03 15.7 345 15.2 101670 82
2004-07-14 07:00:52 51°14.826 2°47.994 15.1 345 15.2 101670 82
2004-07-14 07:00:57 51°14.823 2°47.964 13.6 346 15.3 101670 82
2004-07-14 07:01:02 51°14.82 2°47.935 14.7 345 15.3 101670 82
2004-07-14 07:01:08 51°14.816 2°47.899 14.4 348 15.3 101660 82
2004-07-14 07:01:13 51°14.813 2°47.869 14.7 346 15.3 101660 82
2004-07-14 07:01:17 51°14.811 2°47.845 15.4 345 15.3 101660 82
2004-07-14 07:01:22 51°14.808 2°47.815 16.8 349 15.3 101660 82
2004-07-14 07:01:28 51°14.803 2°47.78 16.4 345 15.3 101670 83
2004-07-14 07:01:33 51°14.801 2°47.75 16.2 350 15.3 101670 83
2004-07-14 07:01:36 51°14.798 2°47.733 16.3 348 15.3 101670 83
2004-07-14 07:01:42 51°14.795 2°47.697 15.7 348 15.3 101670 83
2004-07-14 07:01:46 51°14.792 2°47.673 15.7 347 15.3 101660 82
2004-07-14 07:01:52 51°14.789 2°47.638 16.4 348 15.3 101660 82
2004-07-14 07:01:57 51°14.785 2°47.608 16.5 346 15.2 101660 82
2004-07-14 07:02:01 51°14.784 2°47.585 15.6 344 15.2 101660 82
2004-07-14 07:02:08 51°14.779 2°47.543 16 348 15.2 101670 82
2004-07-14 07:02:13 51°14.776 2°47.514 17 345 15.2 101670 82
2004-07-14 07:02:16 51°14.774 2°47.496 16.8 349 15.2 101670 82
2004-07-14 07:02:22 51°14.771 2°47.46 17.6 348 15.2 101670 82
2004-07-14 07:02:28 51°14.767 2°47.424 16.6 348 15.2 101670 82
2004-07-14 07:02:32 51°14.765 2°47.4 17.1 348 15.2 101670 82
2004-07-14 07:02:36 51°14.762 2°47.377 17 348 15.2 101660 82
2004-07-14 07:02:42 51°14.759 2°47.341 15.8 350 15.2 101660 82
2004-07-14 07:02:48 51°14.755 2°47.306 15.6 347 15.2 101660 82
2004-07-14 07:02:49 51°14.754 2°47.3 16.6 348 15.2 101660 82
2004-07-14 07:02:56 51°14.75 2°47.259 16.6 347 15.2 101670 81
2004-07-14 07:03:02 51°14.746 2°47.224 15.5 347 15.2 101670 81
2004-07-14 07:03:06 51°14.744 2°47.2 16.3 349 15.2 101670 81
2004-07-14 07:03:12 51°14.74 2°47.165 15.8 349 15.2 101670 81
2004-07-14 07:03:16 51°14.737 2°47.141 16.1 350 15.2 101680 81
2004-07-14 07:03:22 51°14.733 2°47.106 15.7 350 15.2 101680 81
2004-07-14 07:03:28 51°14.729 2°47.07 15.8 347 15.2 101670 82
2004-07-14 07:03:30 51°14.728 2°47.058 15.1 348 15.2 101670 82
2004-07-14 07:03:37 51°14.724 2°47.017 14.9 347 15.2 101670 82
2004-07-14 07:03:42 51°14.721 2°46.987 16.2 355 15.2 101670 82
2004-07-14 07:03:48 51°14.718 2°46.951 16 354 15.2 101670 82
2004-07-14 07:03:53 51°14.715 2°46.922 15.7 349 15.2 101670 82
2004-07-14 07:03:56 51°14.713 2°46.904 17.2 350 15.2 101670 82
2004-07-14 07:04:02 51°14.709 2°46.868 16 346 15.2 101670 82
2004-07-14 07:04:06 51°14.706 2°46.844 15.7 349 15.2 101670 82
2004-07-14 07:04:12 51°14.703 2°46.808 15.8 345 15.2 101670 82
2004-07-14 07:04:16 51°14.701 2°46.785 16 345 15.2 101680 82
2004-07-14 07:04:22 51°14.697 2°46.749 15.9 348 15.2 101680 82
2004-07-14 07:04:26 51°14.695 2°46.725 15.1 348 15.3 101670 82
2004-07-14 07:04:33 51°14.69 2°46.683 15.6 344 15.3 101670 82
2004-07-14 07:04:37 51°14.688 2°46.66 14.7 350 15.3 101670 82
2004-07-14 07:04:42 51°14.685 2°46.63 15.3 352 15.3 101670 82
2004-07-14 07:04:48 51°14.681 2°46.595 13.9 347 15.3 101680 82
2004-07-14 07:04:52 51°14.678 2°46.572 16.9 348 15.3 101680 82
2004-07-14 07:04:56 51°14.676 2°46.548 16.6 349 15.3 101670 83
2004-07-14 07:05:02 51°14.673 2°46.513 15.8 348 15.3 101670 83
2004-07-14 07:05:08 51°14.669 2°46.477 16.3 351 15.3 101680 82
2004-07-14 07:05:12 51°14.666 2°46.454 15.8 347 15.3 101680 82
2004-07-14 07:05:17 51°14.663 2°46.425 15.9 347 15.3 101670 82
2004-07-14 07:05:22 51°14.659 2°46.395 15.3 344 15.3 101670 82
2004-07-14 07:05:27 51°14.656 2°46.366 16.9 348 15.3 101680 82
2004-07-14 07:05:33 51°14.653 2°46.331 16.9 346 15.3 101680 82
2004-07-14 07:05:37 51°14.65 2°46.308 17 345 15.3 101670 82
2004-07-14 07:05:41 51°14.648 2°46.285 16.7 346 15.3 101670 82
2004-07-14 07:05:48 51°14.643 2°46.245 16.5 346 15.3 101680 82
2004-07-14 07:05:52 51°14.641 2°46.222 16.8 351 15.3 101680 82
2004-07-14 07:05:57 51°14.638 2°46.193 16.3 347 15.3 101670 82
2004-07-14 07:06:02 51°14.635 2°46.164 16.7 349 15.3 101670 82
2004-07-14 07:06:08 51°14.631 2°46.13 16.5 346 15.3 101670 82
2004-07-14 07:06:12 51°14.629 2°46.107 16.6 347 15.3 101670 82
2004-07-14 07:06:17 51°14.626 2°46.078 16.2 344 15.2 101670 82
2004-07-14 07:06:21 51°14.623 2°46.055 16.1 345 15.2 101670 82
2004-07-14 07:06:28 51°14.619 2°46.015 16.4 348 15.3 101670 82
2004-07-14 07:06:32 51°14.617 2°45.992 16 347 15.3 101670 82
2004-07-14 07:06:36 51°14.614 2°45.969 15.5 349 15.2 101670 82
2004-07-14 07:06:41 51°14.611 2°45.94 15.8 350 15.2 101670 82
2004-07-14 07:06:46 51°14.608 2°45.911 16.7 353 15.2 101670 82
2004-07-14 07:06:52 51°14.604 2°45.877 14.6 352 15.2 101670 82
2004-07-14 07:06:56 51°14.602 2°45.854 16.7 353 15.3 101680 82
2004-07-14 07:07:01 51°14.599 2°45.825 17.4 352 15.3 101680 82
2004-07-14 07:07:08 51°14.595 2°45.785 19.4 349 15.3 101680 82
2004-07-14 07:07:12 51°14.593 2°45.762 19.3 349 15.3 101680 82
2004-07-14 07:07:16 51°14.59 2°45.739 19.3 349 15.3 101680 82
2004-07-14 07:07:21 51°14.587 2°45.71 19 351 15.3 101680 82
2004-07-14 07:07:28 51°14.583 2°45.67 18.5 350 15.3 101680 82
2004-07-14 07:07:32 51°14.58 2°45.648 18.5 349 15.3 101680 82
2004-07-14 07:07:36 51°14.578 2°45.625 17.4 348 15.3 101670 81
2004-07-14 07:07:38 51°14.576 2°45.613 17.9 352 15.3 101670 81
2004-07-14 07:07:45 51°14.572 2°45.572 18.1 355 15.3 101660 81
2004-07-14 07:07:52 51°14.568 2°45.531 19.2 354 15.3 101660 81
2004-07-14 07:07:56 51°14.566 2°45.508 18.9 351 15.2 101670 80
2004-07-14 07:08:01 51°14.563 2°45.479 18.5 350 15.2 101670 80
2004-07-14 07:08:08 51°14.559 2°45.438 18.7 352 15.3 101690 80
2004-07-14 07:08:12 51°14.557 2°45.415 17.2 350 15.3 101690 80
2004-07-14 07:08:17 51°14.554 2°45.386 17.4 351 15.3 101680 81
2004-07-14 07:08:21 51°14.552 2°45.363 19.1 354 15.3 101680 81
2004-07-14 07:08:26 51°14.548 2°45.333 18.3 348 15.3 101660 80
2004-07-14 07:08:32 51°14.545 2°45.297 19 351 15.3 101660 80
2004-07-14 07:08:36 51°14.543 2°45.274 18.4 353 15.3 101670 80
2004-07-14 07:08:41 51°14.54 2°45.244 18.3 353 15.3 101670 80
2004-07-14 07:08:48 51°14.536 2°45.203 18.3 353 15.3 101660 80
2004-07-14 07:08:52 51°14.533 2°45.18 19 353 15.3 101660 80
2004-07-14 07:08:56 51°14.531 2°45.156 19.7 350 15.3 101670 80
2004-07-14 07:09:01 51°14.528 2°45.126 17.1 354 15.3 101670 80
2004-07-14 07:09:06 51°14.525 2°45.097 17.8 355 15.3 101670 80
2004-07-14 07:09:12 51°14.521 2°45.061 18.1 353 15.3 101670 80
2004-07-14 07:09:16 51°14.519 2°45.038 18.7 349 15.3 101670 79
2004-07-14 07:09:21 51°14.516 2°45.008 18.2 351 15.3 101670 79
2004-07-14 07:09:28 51°14.512 2°44.967 18 349 15.3 101670 79
2004-07-14 07:09:29 51°14.511 2°44.961 17.7 347 15.3 101670 79
2004-07-14 07:09:36 51°14.507 2°44.92 16.7 350 15.3 101670 80
2004-07-14 07:09:41 51°14.503 2°44.89 19.1 354 15.3 101670 80
2004-07-14 07:09:46 51°14.5 2°44.861 19.4 353 15.4 101680 80
2004-07-14 07:09:52 51°14.496 2°44.826 18.4 350 15.4 101680 80
2004-07-14 07:09:56 51°14.494 2°44.802 17.5 351 15.4 101670 80
2004-07-14 07:10:01 51°14.491 2°44.773 17.7 349 15.4 101670 80
2004-07-14 07:10:08 51°14.487 2°44.731 18.1 348 15.4 101670 80
2004-07-14 07:10:12 51°14.484 2°44.708 18.3 343 15.4 101670 80
2004-07-14 07:10:17 51°14.481 2°44.679 16.5 350 15.4 101670 79
2004-07-14 07:10:21 51°14.478 2°44.655 18 348 15.4 101670 79
2004-07-14 07:10:28 51°14.475 2°44.614 18.7 347 15.4 101680 79
2004-07-14 07:10:32 51°14.472 2°44.59 19 347 15.4 101680 79
2004-07-14 07:10:36 51°14.47 2°44.567 18.3 349 15.4 101660 79
2004-07-14 07:10:41 51°14.467 2°44.538 17.8 347 15.4 101660 79
2004-07-14 07:10:46 51°14.463 2°44.508 17.7 348 15.4 101670 79
2004-07-14 07:10:52 51°14.46 2°44.473 17.1 345 15.4 101670 79
2004-07-14 07:10:56 51°14.457 2°44.45 16.7 347 15.4 101670 79
2004-07-14 07:11:01 51°14.454 2°44.42 17.6 348 15.4 101670 79
2004-07-14 07:11:08 51°14.45 2°44.379 18.3 347 15.4 101670 79
2004-07-14 07:11:12 51°14.448 2°44.355 15.7 348 15.4 101670 79
2004-07-14 07:11:16 51°14.445 2°44.331 16 348 15.4 101670 79
2004-07-14 07:11:21 51°14.442 2°44.302 16 352 15.4 101670 79
2004-07-14 07:11:26 51°14.439 2°44.272 16 348 15.4 101670 79
2004-07-14 07:11:32 51°14.435 2°44.237 17.6 352 15.4 101670 79
2004-07-14 07:11:36 51°14.433 2°44.213 16.6 355 15.4 101670 80
2004-07-14 07:11:41 51°14.43 2°44.184 15.8 351 15.4 101670 80
2004-07-14 07:11:48 51°14.425 2°44.142 16.7 350 15.5 101680 80
2004-07-14 07:11:52 51°14.423 2°44.119 18.1 350 15.5 101680 80
2004-07-14 07:11:56 51°14.42 2°44.095 17.4 354 15.5 101680 80
2004-07-14 07:12:01 51°14.417 2°44.066 17.2 353 15.5 101680 80
2004-07-14 07:12:06 51°14.414 2°44.036 16.7 351 15.5 101680 81
2004-07-14 07:12:12 51°14.411 2°44.001 16.4 350 15.5 101680 81
2004-07-14 07:12:16 51°14.408 2°43.977 17 350 15.5 101670 80
2004-07-14 07:12:21 51°14.405 2°43.947 16.6 351 15.5 101670 80
2004-07-14 07:12:28 51°14.401 2°43.906 16.9 347 15.5 101670 80
2004-07-14 07:12:29 51°14.4 2°43.9 17.8 347 15.5 101670 80
2004-07-14 07:12:36 51°14.396 2°43.859 17 344 15.5 101680 80
2004-07-14 07:12:41 51°14.393 2°43.829 17.7 349 15.5 101680 80
2004-07-14 07:12:46 51°14.39 2°43.799 16.6 348 15.5 101680 80
2004-07-14 07:12:52 51°14.387 2°43.764 18.2 349 15.5 101680 80
2004-07-14 07:12:56 51°14.386 2°43.74 17.2 345 15.5 101670 80
2004-07-14 07:13:01 51°14.384 2°43.71 16 353 15.5 101670 80
2004-07-14 07:13:08 51°14.38 2°43.668 17.5 351 15.5 101670 80
2004-07-14 07:13:12 51°14.379 2°43.644 18.3 356 15.5 101670 80
2004-07-14 07:13:17 51°14.376 2°43.615 17.3 352 15.5 101660 80
2004-07-14 07:13:21 51°14.375 2°43.591 17.8 353 15.5 101660 80
2004-07-14 07:13:28 51°14.372 2°43.549 19.1 351 15.5 101670 80
2004-07-14 07:13:32 51°14.37 2°43.526 17.2 351 15.5 101670 80
2004-07-14 07:13:36 51°14.369 2°43.502 16 351 15.5 101670 80
2004-07-14 07:13:41 51°14.366 2°43.472 17.2 355 15.5 101670 80
2004-07-14 07:13:46 51°14.365 2°43.442 16.5 350 15.5 101670 80
2004-07-14 07:13:52 51°14.363 2°43.406 18.2 352 15.5 101670 80
2004-07-14 07:13:56 51°14.362 2°43.382 16.4 354 15.5 101660 80
2004-07-14 07:14:01 51°14.36 2°43.352 17.3 350 15.5 101660 80
2004-07-14 07:14:08 51°14.358 2°43.311 17.2 349 15.5 101660 80
2004-07-14 07:14:12 51°14.357 2°43.287 17.5 350 15.5 101660 80
2004-07-14 07:14:16 51°14.356 2°43.263 17.4 348 15.5 101680 80
2004-07-14 07:14:21 51°14.355 2°43.233 17 349 15.5 101680 80
2004-07-14 07:14:28 51°14.353 2°43.191 16.1 350 15.5 101660 80
2004-07-14 07:14:32 51°14.351 2°43.167 18.4 352 15.5 101660 80
2004-07-14 07:14:36 51°14.351 2°43.143 18.4 350 15.5 101670 80
2004-07-14 07:14:41 51°14.349 2°43.113 17.5 351 15.5 101670 80
2004-07-14 07:14:48 51°14.347 2°43.071 17.6 349 15.5 101670 80
2004-07-14 07:14:52 51°14.345 2°43.047 16.5 357 15.5 101670 80
2004-07-14 07:14:56 51°14.345 2°43.023 17.6 351 15.5 101670 80
2004-07-14 07:15:01 51°14.343 2°42.993 18 351 15.5 101670 80
2004-07-14 07:15:06 51°14.342 2°42.963 17.9 349 15.5 101660 80
2004-07-14 07:15:12 51°14.34 2°42.928 18.2 351 15.5 101660 80
2004-07-14 07:15:21 51°14.337 2°42.874 18 343 15.5 101670 80
2004-07-14 07:15:28 51°14.336 2°42.833 17.5 342 15.5 101670 80
2004-07-14 07:15:32 51°14.334 2°42.809 16.7 346 15.5 101670 80
2004-07-14 07:15:36 51°14.333 2°42.785 17.4 345 15.5 101660 80
2004-07-14 07:15:41 51°14.332 2°42.755 16.6 344 15.5 101660 80
2004-07-14 07:15:48 51°14.33 2°42.714 16.9 347 15.5 101650 79
2004-07-14 07:15:52 51°14.329 2°42.69 16.7 345 15.5 101650 79
2004-07-14 07:15:56 51°14.328 2°42.666 16.9 348 15.5 101660 80
2004-07-14 07:16:01 51°14.326 2°42.637 17.6 345 15.5 101660 80
2004-07-14 07:16:06 51°14.325 2°42.607 17.4 342 15.5 101650 80
2004-07-14 07:16:12 51°14.324 2°42.572 17.3 349 15.5 101650 80
2004-07-14 07:16:16 51°14.323 2°42.548 15.8 351 15.5 101660 80
2004-07-14 07:16:21 51°14.321 2°42.519 16.8 346 15.5 101660 80
2004-07-14 07:16:28 51°14.319 2°42.477 17.3 351 15.5 101660 80
2004-07-14 07:16:30 51°14.319 2°42.465 16.2 343 15.5 101660 80
2004-07-14 07:16:36 51°14.317 2°42.43 16.5 351 15.5 101670 80
2004-07-14 07:16:41 51°14.316 2°42.4 17.8 346 15.5 101670 80
2004-07-14 07:16:48 51°14.315 2°42.358 17.1 344 15.5 101670 80
2004-07-14 07:16:52 51°14.313 2°42.335 16.8 347 15.5 101670 80
2004-07-14 07:16:56 51°14.313 2°42.311 17.8 343 15.5 101650 80
2004-07-14 07:17:01 51°14.311 2°42.282 17.2 342 15.5 101650 80
2004-07-14 07:17:06 51°14.31 2°42.252 18.7 347 15.5 101670 80
2004-07-14 07:17:12 51°14.309 2°42.216 17.7 346 15.5 101670 80
2004-07-14 07:17:16 51°14.309 2°42.193 17.2 346 15.5 101660 80
2004-07-14 07:17:21 51°14.307 2°42.163 15.3 347 15.5 101660 80
2004-07-14 07:17:28 51°14.306 2°42.122 17.2 346 15.5 101650 80
2004-07-14 07:17:32 51°14.305 2°42.098 17.6 348 15.5 101650 80
2004-07-14 07:17:36 51°14.304 2°42.075 17.2 346 15.5 101660 79
2004-07-14 07:17:41 51°14.302 2°42.045 18.4 346 15.5 101660 79
2004-07-14 07:17:48 51°14.301 2°42.005 18 345 15.5 101650 80
2004-07-14 07:17:50 51°14.3 2°41.993 17.7 348 15.5 101650 80
2004-07-14 07:17:56 51°14.298 2°41.958 18.5 346 15.5 101650 79
2004-07-14 07:18:01 51°14.297 2°41.928 17.7 345 15.5 101650 79
2004-07-14 07:18:08 51°14.295 2°41.887 17.4 345 15.5 101650 79
2004-07-14 07:18:12 51°14.294 2°41.864 17.8 348 15.5 101650 79
2004-07-14 07:18:16 51°14.293 2°41.841 16.7 347 15.5 101660 79
2004-07-14 07:18:21 51°14.291 2°41.812 16.7 344 15.5 101660 79
2004-07-14 07:18:26 51°14.29 2°41.783 18.6 348 15.5 101660 79
2004-07-14 07:18:32 51°14.289 2°41.748 17.5 343 15.5 101660 79
2004-07-14 07:18:36 51°14.288 2°41.724 18.2 346 15.5 101650 79
2004-07-14 07:18:41 51°14.287 2°41.695 17.7 344 15.5 101650 79
2004-07-14 07:18:48 51°14.286 2°41.655 17.8 347 15.5 101660 79
2004-07-14 07:18:52 51°14.284 2°41.631 16 347 15.5 101660 79
2004-07-14 07:18:56 51°14.283 2°41.608 16.4 346 15.5 101660 79
2004-07-14 07:19:01 51°14.282 2°41.579 15.5 347 15.5 101660 79
2004-07-14 07:19:08 51°14.28 2°41.538 16.1 351 15.4 101660 79
2004-07-14 07:19:12 51°14.279 2°41.515 17.8 343 15.4 101660 79
2004-07-14 07:19:16 51°14.279 2°41.492 17.7 344 15.5 101640 79
2004-07-14 07:19:21 51°14.277 2°41.463 15.8 347 15.5 101640 79
2004-07-14 07:19:28 51°14.276 2°41.422 16.9 349 15.5 101650 79
2004-07-14 07:19:32 51°14.274 2°41.399 16.6 349 15.5 101650 79
2004-07-14 07:19:37 51°14.274 2°41.37 17.7 348 15.5 101650 79
2004-07-14 07:19:41 51°14.272 2°41.347 17.3 347 15.5 101650 79
2004-07-14 07:19:48 51°14.271 2°41.306 17.3 343 15.5 101650 79
2004-07-14 07:19:52 51°14.27 2°41.283 16.4 343 15.5 101650 79
2004-07-14 07:19:56 51°14.269 2°41.259 17.5 342 15.5 101650 79
2004-07-14 07:20:01 51°14.268 2°41.23 16.4 348 15.5 101650 79
2004-07-14 07:20:05 51°14.267 2°41.207 16.6 346 15.5 101640 79
2004-07-14 07:20:12 51°14.265 2°41.166 17.5 344 15.5 101640 79
2004-07-14 07:20:16 51°14.264 2°41.143 16.7 344 15.5 101650 79
2004-07-14 07:20:21 51°14.263 2°41.113 17 345 15.5 101650 79
2004-07-14 07:20:24 51°14.262 2°41.096 16.5 346 15.5 101650 79
2004-07-14 07:20:32 51°14.261 2°41.049 16.4 347 15.5 101650 79
2004-07-14 07:20:36 51°14.26 2°41.026 17.9 347 15.5 101660 79
2004-07-14 07:20:41 51°14.259 2°40.997 16.7 346 15.5 101660 79
2004-07-14 07:20:48 51°14.257 2°40.957 17.1 344 15.5 101660 79
2004-07-14 07:20:52 51°14.256 2°40.934 17.7 341 15.5 101660 79
2004-07-14 07:20:56 51°14.256 2°40.911 16.2 340 15.5 101660 79
2004-07-14 07:21:01 51°14.254 2°40.881 17.9 343 15.5 101660 79
2004-07-14 07:21:08 51°14.253 2°40.841 16.4 346 15.5 101660 79
2004-07-14 07:21:12 51°14.252 2°40.818 15.3 344 15.5 101660 79
2004-07-14 07:21:16 51°14.251 2°40.794 16.3 346 15.5 101650 79
2004-07-14 07:21:21 51°14.25 2°40.765 17.7 345 15.5 101650 79
2004-07-14 07:21:28 51°14.248 2°40.724 16.2 346 15.5 101650 79
2004-07-14 07:21:32 51°14.248 2°40.701 17.2 344 15.5 101650 79
2004-07-14 07:21:36 51°14.246 2°40.678 17.6 347 15.5 101670 80
2004-07-14 07:21:41 51°14.245 2°40.649 15.6 341 15.5 101670 80
2004-07-14 07:21:48 51°14.244 2°40.609 15.8 349 15.5 101660 80
2004-07-14 07:21:52 51°14.243 2°40.586 18.6 348 15.5 101660 80
2004-07-14 07:21:57 51°14.242 2°40.557 17.8 349 15.5 101660 80
2004-07-14 07:22:01 51°14.241 2°40.534 18.1 351 15.5 101660 80
2004-07-14 07:22:08 51°14.239 2°40.494 16.9 350 15.6 101650 80
2004-07-14 07:22:12 51°14.238 2°40.471 17 351 15.6 101650 80
2004-07-14 07:22:16 51°14.237 2°40.447 16.7 347 15.5 101660 79
2004-07-14 07:22:21 51°14.237 2°40.418 17.4 347 15.5 101660 79
2004-07-14 07:22:28 51°14.235 2°40.378 18.5 350 15.5 101660 79
2004-07-14 07:22:32 51°14.234 2°40.355 17.6 347 15.5 101660 79
2004-07-14 07:22:36 51°14.233 2°40.332 18.3 347 15.5 101660 79
2004-07-14 07:22:41 51°14.232 2°40.303 17.9 347 15.5 101660 79
2004-07-14 07:22:46 51°14.231 2°40.274 17.9 347 15.5 101660 79
2004-07-14 07:22:52 51°14.23 2°40.24 18.3 348 15.5 101660 79
2004-07-14 07:22:56 51°14.229 2°40.217 18.5 348 15.5 101660 79
2004-07-14 07:23:01 51°14.227 2°40.188 17.9 346 15.5 101660 79
2004-07-14 07:23:08 51°14.226 2°40.148 18.3 345 15.5 101660 79
2004-07-14 07:23:12 51°14.225 2°40.125 18 347 15.5 101660 79
2004-07-14 07:23:16 51°14.224 2°40.103 16.1 347 15.5 101660 79
2004-07-14 07:23:21 51°14.223 2°40.074 16.7 348 15.5 101660 79
2004-07-14 07:23:26 51°14.222 2°40.045 17.5 347 15.5 101650 79
2004-07-14 07:23:32 51°14.221 2°40.011 18.8 345 15.5 101650 79
2004-07-14 07:23:36 51°14.22 2°39.988 17.3 346 15.5 101650 79
2004-07-14 07:23:41 51°14.22 2°39.96 17.4 345 15.5 101650 79
2004-07-14 07:23:46 51°14.219 2°39.931 17.7 343 15.5 101660 79
2004-07-14 07:23:52 51°14.217 2°39.897 17.8 347 15.5 101660 79
2004-07-14 07:23:56 51°14.216 2°39.873 18.4 347 15.5 101660 79
2004-07-14 07:24:01 51°14.215 2°39.845 17 342 15.5 101660 79
2004-07-14 07:24:08 51°14.213 2°39.805 17.7 346 15.5 101660 79
2004-07-14 07:24:12 51°14.212 2°39.782 18.4 347 15.5 101660 79
2004-07-14 07:24:17 51°14.211 2°39.753 18 347 15.5 101670 79
2004-07-14 07:24:21 51°14.21 2°39.73 17.1 343 15.5 101670 79
2004-07-14 07:24:28 51°14.209 2°39.69 17 349 15.5 101650 79
2004-07-14 07:24:32 51°14.208 2°39.667 17.4 346 15.5 101650 79
2004-07-14 07:24:36 51°14.207 2°39.644 16 344 15.5 101660 79
2004-07-14 07:24:41 51°14.206 2°39.615 17 346 15.5 101660 79
2004-07-14 07:24:48 51°14.204 2°39.576 17.8 349 15.5 101660 79
2004-07-14 07:24:52 51°14.203 2°39.552 18.5 346 15.5 101660 79
2004-07-14 07:24:57 51°14.202 2°39.524 17.6 344 15.5 101670 79
2004-07-14 07:25:01 51°14.201 2°39.501 17.6 345 15.5 101670 79
2004-07-14 07:25:08 51°14.199 2°39.461 17.2 345 15.5 101660 79
2004-07-14 07:25:12 51°14.198 2°39.437 16.9 342 15.5 101660 79
2004-07-14 07:25:17 51°14.197 2°39.409 17.3 347 15.5 101660 79
2004-07-14 07:25:21 51°14.196 2°39.386 18.1 344 15.5 101660 79
2004-07-14 07:25:28 51°14.194 2°39.346 19.2 343 15.5 101680 79
2004-07-14 07:25:33 51°14.193 2°39.316 16.9 347 15.5 101680 79
2004-07-14 07:25:36 51°14.192 2°39.299 17.7 343 15.5 101660 79
2004-07-14 07:25:41 51°14.191 2°39.27 18.7 343 15.5 101660 79
2004-07-14 07:25:45 51°14.19 2°39.247 16.5 342 15.5 101660 79
2004-07-14 07:25:52 51°14.188 2°39.207 17.4 345 15.5 101660 79
2004-07-14 07:25:57 51°14.187 2°39.178 17.3 347 15.6 101670 79
2004-07-14 07:26:02 51°14.186 2°39.149 17.4 344 15.6 101670 79
2004-07-14 07:26:08 51°14.184 2°39.115 17.2 347 15.5 101660 79
2004-07-14 07:26:12 51°14.183 2°39.092 15.9 349 15.5 101660 79
2004-07-14 07:26:16 51°14.182 2°39.069 16.6 344 15.5 101660 79
2004-07-14 07:26:21 51°14.179 2°39.04 16.9 348 15.5 101660 79
2004-07-14 07:26:28 51°14.175 2°39 17.7 349 15.5 101660 79
2004-07-14 07:26:29 51°14.174 2°38.995 17.7 346 15.5 101660 79
2004-07-14 07:26:36 51°14.169 2°38.955 17 350 15.6 101660 79
2004-07-14 07:26:42 51°14.164 2°38.921 18.3 349 15.6 101660 79
2004-07-14 07:26:48 51°14.159 2°38.886 17.7 348 15.6 101680 80
2004-07-14 07:26:52 51°14.155 2°38.864 18.5 348 15.6 101680 80
2004-07-14 07:27:01 51°14.148 2°38.813 18.7 350 15.6 101660 79
2004-07-14 07:27:06 51°14.143 2°38.785 18 353 15.6 101650 79
2004-07-14 07:27:12 51°14.137 2°38.751 17.8 354 15.6 101650 79
2004-07-14 07:27:17 51°14.132 2°38.723 17.9 350 15.6 101660 79
2004-07-14 07:27:21 51°14.128 2°38.7 18.4 353 15.6 101660 79
2004-07-14 07:27:26 51°14.123 2°38.672 17.3 355 15.6 101660 79
2004-07-14 07:27:32 51°14.117 2°38.638 17.3 352 15.6 101660 79
2004-07-14 07:27:36 51°14.113 2°38.616 17.6 352 15.6 101660 79
2004-07-14 07:27:41 51°14.108 2°38.588 18.8 351 15.6 101660 79
2004-07-14 07:27:48 51°14.102 2°38.548 18.3 351 15.6 101660 79
2004-07-14 07:27:52 51°14.097 2°38.525 17 349 15.6 101660 79
2004-07-14 07:27:56 51°14.094 2°38.503 17 353 15.6 101670 79
2004-07-14 07:28:01 51°14.088 2°38.474 17.1 353 15.6 101670 79
2004-07-14 07:28:08 51°14.082 2°38.435 18.5 350 15.6 101670 79
2004-07-14 07:28:12 51°14.077 2°38.412 17.9 349 15.6 101670 79
2004-07-14 07:28:17 51°14.073 2°38.384 19.4 350 15.6 101660 79
2004-07-14 07:28:21 51°14.069 2°38.361 17.9 351 15.6 101660 79
2004-07-14 07:28:26 51°14.064 2°38.333 17.9 353 15.6 101660 79
2004-07-14 07:28:32 51°14.058 2°38.299 18.8 348 15.6 101660 79
2004-07-14 07:28:36 51°14.055 2°38.276 18.5 345 15.6 101650 79
2004-07-14 07:28:41 51°14.05 2°38.248 17 350 15.6 101650 79
2004-07-14 07:28:48 51°14.043 2°38.208 16.2 346 15.6 101650 79
2004-07-14 07:28:49 51°14.042 2°38.202 17 351 15.6 101650 79
2004-07-14 07:28:57 51°14.033 2°38.158 17.7 349 15.6 101650 79
2004-07-14 07:29:01 51°14.029 2°38.135 18.2 348 15.6 101650 79
2004-07-14 07:29:08 51°14.021 2°38.096 17.3 352 15.6 101640 79
2004-07-14 07:29:12 51°14.017 2°38.073 17.5 350 15.6 101640 79
2004-07-14 07:29:16 51°14.012 2°38.051 17.9 350 15.6 101660 80
2004-07-14 07:29:21 51°14.006 2°38.023 17.5 350 15.6 101660 80
2004-07-14 07:29:28 51°13.997 2°37.984 16.7 351 15.6 101660 79
2004-07-14 07:29:32 51°13.992 2°37.962 17.4 353 15.6 101660 79
2004-07-14 07:29:36 51°13.988 2°37.94 16.2 353 15.6 101660 79
2004-07-14 07:29:41 51°13.981 2°37.912 16.1 355 15.6 101660 79
2004-07-14 07:29:46 51°13.976 2°37.884 18 354 15.6 101660 79
2004-07-14 07:29:52 51°13.968 2°37.851 18 358 15.6 101660 79
2004-07-14 07:29:58 51°13.962 2°37.817 18.8 1 15.6 101650 79
2004-07-14 07:30:02 51°13.957 2°37.795 17.4 357 15.6 101650 79
2004-07-14 07:30:08 51°13.95 2°37.762 17.6 355 15.6 101660 80
2004-07-14 07:30:12 51°13.945 2°37.739 16.6 358 15.6 101660 80
2004-07-14 07:30:17 51°13.939 2°37.711 17.7 360 15.6 101660 79
2004-07-14 07:30:22 51°13.933 2°37.683 17.2 356 15.6 101660 79
2004-07-14 07:30:26 51°13.928 2°37.661 17.3 359 15.6 101660 79
2004-07-14 07:30:32 51°13.922 2°37.627 18.8 358 15.6 101660 79
2004-07-14 07:30:36 51°13.917 2°37.605 18.2   15.6 101660 79
2004-07-14 07:30:42 51°13.91 2°37.571 18.8 1 15.6 101660 79
2004-07-14 07:30:48 51°13.903 2°37.538 18.4 359 15.6 101670 79
2004-07-14 07:30:53 51°13.897 2°37.51 18.9 360 15.6 101670 79
2004-07-14 07:30:57 51°13.892 2°37.487 18.9 358 15.6 101670 79
2004-07-14 07:31:02 51°13.887 2°37.459 16.9 355 15.6 101670 79
2004-07-14 07:31:06 51°13.882 2°37.437 17.2 352 15.6 101680 79
2004-07-14 07:31:12 51°13.875 2°37.403 17.2   15.6 101680 79
2004-07-14 07:31:16 51°13.871 2°37.381 16.3   15.6 101670 79
2004-07-14 07:31:21 51°13.864 2°37.353 16.7 360 15.6 101670 79
2004-07-14 07:31:25 51°13.858 2°37.331 17.1 2 15.6 101660 79
2004-07-14 07:31:32 51°13.847 2°37.294 16.7 6 15.6 101660 79
2004-07-14 07:31:36 51°13.841 2°37.273 17.1 6 15.7 101660 79
2004-07-14 07:31:41 51°13.833 2°37.246 17.3 6 15.7 101660 79
2004-07-14 07:31:48 51°13.82 2°37.21 17.7 9 15.7 101670 79
2004-07-14 07:31:52 51°13.813 2°37.189 18 8 15.7 101670 79
2004-07-14 07:31:56 51°13.806 2°37.168 16.8 6 15.7 101680 79
2004-07-14 07:32:01 51°13.797 2°37.142 17.9 6 15.7 101680 79
2004-07-14 07:32:05 51°13.789 2°37.122 17.7 6 15.7 101680 79
2004-07-14 07:32:17 51°13.767 2°37.06 17.3 1 15.7 101690 78
2004-07-14 07:32:24 51°13.754 2°37.022 16.3 1 15.7 101690 78
2004-07-14 07:32:28 51°13.747 2°37.001 18.3 360 15.6 101690 78
2004-07-14 07:32:33 51°13.738 2°36.975 17.7 3 15.6 101690 78
2004-07-14 07:32:37 51°13.731 2°36.954 17.7 1 15.7 101690 78
2004-07-14 07:32:42 51°13.721 2°36.928 16.6 9 15.7 101690 78
2004-07-14 07:32:48 51°13.71 2°36.897 17.6 5 15.7 101680 78
2004-07-14 07:32:52 51°13.702 2°36.877 17.3 4 15.7 101680 78
2004-07-14 07:32:57 51°13.693 2°36.851 17.8 360 15.7 101680 78
2004-07-14 07:33:04 51°13.68 2°36.815 17.5 11 15.7 101680 78
2004-07-14 07:33:08 51°13.672 2°36.795 17.8 5 15.7 101670 78
2004-07-14 07:33:13 51°13.662 2°36.77 18.5 11 15.7 101670 78
2004-07-14 07:33:16 51°13.656 2°36.755 16.8 1 15.7 101680 78
2004-07-14 07:33:24 51°13.641 2°36.716 16.5 6 15.7 101680 78
2004-07-14 07:33:28 51°13.634 2°36.695 15.8 4 15.7 101680 78
2004-07-14 07:33:32 51°13.626 2°36.674 15.9 357 15.7 101680 78
2004-07-14 07:33:37 51°13.617 2°36.648 16.9 3 15.7 101680 77
2004-07-14 07:33:44 51°13.603 2°36.612 16 1 15.7 101680 77
2004-07-14 07:33:48 51°13.596 2°36.591 16.5 359 15.7 101680 78
2004-07-14 07:33:53 51°13.587 2°36.565 16.6 2 15.7 101680 78
2004-07-14 07:33:57 51°13.579 2°36.545 15.8 1 15.7 101680 78
2004-07-14 07:34:02 51°13.57 2°36.519 16 3 15.7 101680 78
2004-07-14 07:34:08 51°13.558 2°36.489 16.8   15.7 101680 78
2004-07-14 07:34:12 51°13.551 2°36.469 18.1 3 15.7 101680 78
2004-07-14 07:34:17 51°13.541 2°36.444 16.9 360 15.8 101680 79
2004-07-14 07:34:24 51°13.528 2°36.408 17.9 6 15.8 101680 79
2004-07-14 07:34:28 51°13.521 2°36.388 18.3 360 15.8 101670 79
2004-07-14 07:34:33 51°13.511 2°36.363 18 359 15.8 101670 79
2004-07-14 07:34:37 51°13.503 2°36.343 16.9 3 15.8 101690 78
2004-07-14 07:34:44 51°13.49 2°36.308 17.9 4 15.8 101690 78
2004-07-14 07:34:48 51°13.482 2°36.287 17.4 3 15.8 101680 78
2004-07-14 07:34:53 51°13.472 2°36.263 17.1 5 15.8 101680 78
2004-07-14 07:34:57 51°13.464 2°36.243 16.3 3 15.8 101670 78
2004-07-14 07:35:02 51°13.455 2°36.217 17.8   15.8 101670 78
2004-07-14 07:35:08 51°13.442 2°36.187 17.3 2 15.8 101670 78
2004-07-14 07:35:13 51°13.432 2°36.162 18 4 15.8 101670 78
2004-07-14 07:35:17 51°13.425 2°36.142 17.9 6 15.7 101670 78
2004-07-14 07:35:22 51°13.414 2°36.118 18.9 9 15.7 101670 78
2004-07-14 07:35:28 51°13.403 2°36.087 17.8 6 15.8 101680 78
2004-07-14 07:35:33 51°13.392 2°36.063 18.5 8 15.8 101680 78
2004-07-14 07:35:37 51°13.385 2°36.045 17.7 6 15.8 101680 78
2004-07-14 07:35:44 51°13.37 2°36.013 16.7 12 15.8 101680 78
2004-07-14 07:35:48 51°13.362 2°35.993 17.6 6 15.8 101680 78
2004-07-14 07:35:53 51°13.352 2°35.967 17.4 6 15.8 101680 78
2004-07-14 07:35:57 51°13.345 2°35.947 17.3 4 15.7 101690 77
2004-07-14 07:36:04 51°13.331 2°35.912 16.2 3 15.7 101690 77
2004-07-14 07:36:08 51°13.323 2°35.892 16.1 5 15.7 101690 77
2004-07-14 07:36:13 51°13.313 2°35.868 16.4 8 15.7 101690 77
2004-07-14 07:36:17 51°13.305 2°35.847 16.3 5 15.7 101680 78
2004-07-14 07:36:21 51°13.297 2°35.827 16.1 4 15.7 101680 78
2004-07-14 07:36:28 51°13.284 2°35.793 16 2 15.7 101690 78
2004-07-14 07:36:32 51°13.276 2°35.772 16 7 15.7 101690 78
2004-07-14 07:36:37 51°13.266 2°35.747 15.2 3 15.7 101690 78
2004-07-14 07:36:44 51°13.252 2°35.712 15.5 6 15.7 101690 78
2004-07-14 07:36:48 51°13.245 2°35.692 15.6 8 15.7 101680 78
2004-07-14 07:36:52 51°13.237 2°35.672 16.8 6 15.7 101680 78
2004-07-14 07:36:56 51°13.229 2°35.652 15.9 6 15.8 101690 78
2004-07-14 07:37:04 51°13.213 2°35.612 16.4 9 15.8 101690 78
2004-07-14 07:37:08 51°13.205 2°35.592 17.5 6 15.8 101690 79
2004-07-14 07:37:12 51°13.197 2°35.574 16.5 7 15.8 101690 79
2004-07-14 07:37:17 51°13.186 2°35.55 16.5 4 15.8 101690 79
2004-07-14 07:37:22 51°13.174 2°35.526 17.8 1 15.8 101690 79
2004-07-14 07:37:28 51°13.161 2°35.498 18.9 4 15.8 101680 79
2004-07-14 07:37:34 51°13.147 2°35.472 18 2 15.8 101680 79
2004-07-14 07:37:37 51°13.14 2°35.458 18.4 6 15.8 101670 78
2004-07-14 07:37:44 51°13.124 2°35.426 18.7 4 15.8 101670 78
2004-07-14 07:37:48 51°13.115 2°35.407 18.5 8 15.8 101690 79
2004-07-14 07:37:54 51°13.1 2°35.382 18.2 10 15.8 101690 79
2004-07-14 07:37:58 51°13.091 2°35.364 18.6 6 15.8 101680 78
2004-07-14 07:38:04 51°13.076 2°35.338 18 8 15.8 101680 78
2004-07-14 07:38:08 51°13.066 2°35.321 18.2 6 15.7 101670 78
2004-07-14 07:38:12 51°13.056 2°35.304 17.5 10 15.7 101670 78
2004-07-14 07:38:16 51°13.046 2°35.286 16.6 7 15.7 101680 78
2004-07-14 07:38:24 51°13.026 2°35.253 16.2 10 15.7 101680 78
2004-07-14 07:38:28 51°13.016 2°35.235 16.6 11 15.7 101690 77
2004-07-14 07:38:32 51°13.006 2°35.217 16.7 10 15.7 101690 77
2004-07-14 07:38:37 51°12.993 2°35.196 16.7 12 15.7 101680 77
2004-07-14 07:38:44 51°12.976 2°35.166 17.8 17 15.7 101680 77
2004-07-14 07:38:48 51°12.965 2°35.15 17.7 13 15.7 101680 78
2004-07-14 07:38:53 51°12.952 2°35.129 17 13 15.7 101680 78
2004-07-14 07:38:57 51°12.942 2°35.111 16.7 15 15.7 101680 78
2004-07-14 07:39:04 51°12.924 2°35.083 16.8 15 15.7 101680 78
2004-07-14 07:39:09 51°12.911 2°35.062 16.7 14 15.7 101690 78
2004-07-14 07:39:14 51°12.898 2°35.041 17.5 13 15.7 101690 78
2004-07-14 07:39:17 51°12.89 2°35.028 17.1 15 15.7 101680 78
2004-07-14 07:39:24 51°12.872 2°34.999 17.6 16 15.7 101680 78
2004-07-14 07:39:28 51°12.862 2°34.983 16.7 15 15.7 101680 78
2004-07-14 07:39:34 51°12.846 2°34.958 17.5 17 15.7 101680 78
2004-07-14 07:39:37 51°12.838 2°34.946 16.5 10 15.7 101680 78
2004-07-14 07:39:44 51°12.82 2°34.916 17.8 10 15.7 101680 78
2004-07-14 07:39:48 51°12.81 2°34.899 17.3 9 15.7 101680 78
2004-07-14 07:39:53 51°12.798 2°34.879 16.9 8 15.7 101680 78
2004-07-14 07:39:57 51°12.787 2°34.863 18.4 12 15.7 101680 78
2004-07-14 07:40:04 51°12.769 2°34.833 18.6 10 15.7 101680 78
2004-07-14 07:40:08 51°12.759 2°34.817 17.8 12 15.8 101670 78
2004-07-14 07:40:13 51°12.746 2°34.796 18.3 12 15.8 101670 78
2004-07-14 07:40:17 51°12.735 2°34.78 17.5 13 15.8 101680 78
2004-07-14 07:40:24 51°12.717 2°34.751 18.9 15 15.8 101680 78
2004-07-14 07:40:28 51°12.707 2°34.734 18.6 13 15.8 101680 78
2004-07-14 07:40:34 51°12.691 2°34.709 19.3 13 15.8 101680 78
2004-07-14 07:40:37 51°12.683 2°34.697 19.2 10 15.7 101680 77
2004-07-14 07:40:44 51°12.666 2°34.668 18.8 10 15.7 101680 77
2004-07-14 07:40:48 51°12.655 2°34.652 17.7 10 15.7 101680 77
2004-07-14 07:40:52 51°12.645 2°34.635 18 13 15.7 101680 77
2004-07-14 07:40:57 51°12.632 2°34.614 17.1 11 15.7 101670 77
2004-07-14 07:41:04 51°12.614 2°34.585 18.1 12 15.7 101670 77
2004-07-14 07:41:08 51°12.603 2°34.569 18.3 13 15.7 101680 77
2004-07-14 07:41:13 51°12.59 2°34.548 17.4 11 15.7 101680 77
2004-07-14 07:41:16 51°12.582 2°34.535 15.9 10 15.7 101680 77
2004-07-14 07:41:24 51°12.562 2°34.502 16.1 15 15.7 101680 77
2004-07-14 07:41:28 51°12.552 2°34.486 16.8 13 15.7 101680 77
2004-07-14 07:41:32 51°12.541 2°34.469 16.4 16 15.7 101680 77
2004-07-14 07:41:37 51°12.528 2°34.448 16.8 12 15.7 101680 77
2004-07-14 07:41:44 51°12.51 2°34.419 16.9 16 15.7 101680 77
2004-07-14 07:41:48 51°12.5 2°34.402 17.5 17 15.8 101680 78
2004-07-14 07:41:53 51°12.487 2°34.382 17.4 8 15.8 101680 78
2004-07-14 07:41:57 51°12.477 2°34.365 18.9 13 15.8 101690 78
2004-07-14 07:42:04 51°12.459 2°34.336 18.9 16 15.8 101690 78
2004-07-14 07:42:08 51°12.449 2°34.319 18.2 14 15.8 101690 78
2004-07-14 07:42:12 51°12.439 2°34.302 17.9 14 15.8 101690 78
2004-07-14 07:42:17 51°12.426 2°34.282 18.8 13 15.8 101700 78
2004-07-14 07:42:22 51°12.413 2°34.261 17.8 14 15.8 101700 78
2004-07-14 07:42:28 51°12.398 2°34.236 17.2 18 15.8 101690 77
2004-07-14 07:42:32 51°12.388 2°34.219 17.3 12 15.8 101690 77
2004-07-14 07:42:37 51°12.375 2°34.199 18.1 15 15.8 101680 77
2004-07-14 07:42:44 51°12.357 2°34.17 16.5 12 15.8 101680 77
2004-07-14 07:42:47 51°12.349 2°34.157 16.4 13 15.8 101680 77
2004-07-14 07:42:53 51°12.334 2°34.132 17.9 11 15.8 101680 77
2004-07-14 07:42:58 51°12.321 2°34.112 17.6 11 15.7 101670 77
2004-07-14 07:43:04 51°12.306 2°34.087 18 11 15.7 101670 77
2004-07-14 07:43:08 51°12.296 2°34.071 17.6 11 15.7 101670 77
2004-07-14 07:43:13 51°12.283 2°34.05 17 12 15.7 101670 77
2004-07-14 07:43:16 51°12.276 2°34.038 17.8 12 15.8 101670 77
2004-07-14 07:43:23 51°12.257 2°34.009 18.4 11 15.8 101670 77
2004-07-14 07:43:28 51°12.245 2°33.988 17.2 12 15.7 101680 77
2004-07-14 07:43:33 51°12.232 2°33.967 17.9 13 15.7 101680 77
2004-07-14 07:43:38 51°12.219 2°33.947 18.8 14 15.7 101670 77
2004-07-14 07:43:44 51°12.204 2°33.921 17.5 16 15.7 101670 77
2004-07-14 07:43:47 51°12.196 2°33.909 19.3 17 15.8 101680 77
2004-07-14 07:43:53 51°12.181 2°33.884 18.9 19 15.8 101680 77
2004-07-14 07:43:57 51°12.171 2°33.868 18.8 16 15.8 101680 77
2004-07-14 07:44:04 51°12.153 2°33.838 19.2 15 15.8 101680 77
2004-07-14 07:44:08 51°12.142 2°33.822 18.6 17 15.8 101670 77
2004-07-14 07:44:11 51°12.135 2°33.809 19.1 15 15.8 101670 77
2004-07-14 07:44:17 51°12.119 2°33.785 18.5 16 15.8 101680 76
2004-07-14 07:44:23 51°12.104 2°33.76 18.8 14 15.8 101680 76
2004-07-14 07:44:28 51°12.091 2°33.739 18.3 20 15.7 101670 76
2004-07-14 07:44:32 51°12.082 2°33.723 16.6 17 15.7 101670 76
2004-07-14 07:44:37 51°12.069 2°33.703 18.1 15 15.7 101670 75
2004-07-14 07:44:44 51°12.051 2°33.674 19 15 15.7 101670 75
2004-07-14 07:44:48 51°12.041 2°33.657 18.3 16 15.7 101670 75
2004-07-14 07:44:53 51°12.028 2°33.636 15.4 14 15.7 101670 75
2004-07-14 07:44:57 51°12.018 2°33.62 17.8 15 15.7 101670 75
2004-07-14 07:45:03 51°12.005 2°33.598 17 15 15.7 101670 75
2004-07-14 07:45:08 51°11.994 2°33.582 16.2 13 15.7 101680 76
2004-07-14 07:45:12 51°11.988 2°33.569 16.2 12 15.7 101680 76
2004-07-14 07:45:17 51°11.979 2°33.555 16 14 15.7 101670 76
2004-07-14 07:45:23 51°11.97 2°33.538 15.1 19 15.7 101670 76
2004-07-14 07:45:27 51°11.964 2°33.528 14.9 13 15.7 101680 76
2004-07-14 07:45:32 51°11.958 2°33.516 14.8 8 15.7 101680 76
2004-07-14 07:45:37 51°11.953 2°33.504 15.5 6 15.7 101680 76
2004-07-14 07:45:43 51°11.947 2°33.49 14.4 2 15.7 101680 76
2004-07-14 07:45:48 51°11.943 2°33.48 13.9 2 15.8 101690 76
2004-07-14 07:45:53 51°11.94 2°33.47 14.7 2 15.8 101690 76
2004-07-14 07:45:58 51°11.937 2°33.46 14.8 359 15.8 101680 76
2004-07-14 07:46:03 51°11.934 2°33.452 14.2 359 15.8 101680 76
2004-07-14 07:46:08 51°11.931 2°33.444 13.7 1 15.7 101700 76
2004-07-14 07:46:12 51°11.929 2°33.438 12.9 1 15.7 101700 76
2004-07-14 07:46:17 51°11.927 2°33.431 12.1 355 15.7 101690 75
2004-07-14 07:46:23 51°11.925 2°33.422 12.5 357 15.7 101690 75
2004-07-14 07:46:28 51°11.923 2°33.416 12.4   15.7 101670 75
2004-07-14 07:46:33 51°11.921 2°33.411 13.1   15.7 101670 75
2004-07-14 07:46:37 51°11.92 2°33.407 13.7 1 15.7 101670 75
2004-07-14 07:46:41 51°11.918 2°33.403 12.4 359 15.7 101670 75
2004-07-14 07:46:47 51°11.916 2°33.397 12.7 5 15.7 101680 75
2004-07-14 07:46:52 51°11.915 2°33.393 13.5 2 15.7 101680 75
2004-07-14 07:46:57 51°11.913 2°33.39 12.8 8 15.7 101680 76
2004-07-14 07:47:03 51°11.911 2°33.386 12.1 11 15.7 101680 76
2004-07-14 07:47:08 51°11.909 2°33.383 11.9 10 15.7 101670 75
2004-07-14 07:47:13 51°11.908 2°33.381 13.1 14 15.7 101670 75
2004-07-14 07:47:17 51°11.906 2°33.38 10.2 17 15.7 101680 75
2004-07-14 07:47:23 51°11.904 2°33.377 12.3 21 15.7 101680 75
2004-07-14 07:47:27 51°11.903 2°33.377 12.7 25 15.7 101690 75
2004-07-14 07:47:33 51°11.901 2°33.375 11.8 23 15.7 101690 75
2004-07-14 07:47:38 51°11.899 2°33.374 10.7 21 15.7 101690 75
2004-07-14 07:47:43 51°11.898 2°33.374 11 30 15.7 101690 75
2004-07-14 07:47:47 51°11.896 2°33.374 10.8 31 15.7 101690 75
2004-07-14 07:47:53 51°11.895 2°33.374 11.1 33 15.7 101690 75
2004-07-14 07:47:57 51°11.893 2°33.374 11.3 29 15.7 101690 75
2004-07-14 07:48:03 51°11.892 2°33.375 10.3 36 15.7 101690 75
2004-07-14 07:48:08 51°11.891 2°33.377 9.7 37 15.7 101690 75
2004-07-14 07:48:11 51°11.89 2°33.377 11.3 47 15.7 101690 75
2004-07-14 07:48:17 51°11.889 2°33.379 10.2 45 15.7 101690 75
2004-07-14 07:48:23 51°11.888 2°33.381 10.3 50 15.7 101690 75
2004-07-14 07:48:28 51°11.887 2°33.383 10.7 45 15.7 101680 76
2004-07-14 07:48:33 51°11.886 2°33.385 10.4 53 15.7 101680 76
2004-07-14 07:48:37 51°11.886 2°33.387 10 58 15.7 101680 76
2004-07-14 07:48:43 51°11.885 2°33.389 11.2 56 15.7 101680 76
2004-07-14 07:48:48 51°11.884 2°33.391 11 57 15.7 101690 76
2004-07-14 07:48:52 51°11.884 2°33.393 10.1 61 15.7 101690 76
2004-07-14 07:48:57 51°11.883 2°33.396 12 60 15.7 101680 76
2004-07-14 07:49:03 51°11.882 2°33.398 11.3 64 15.7 101680 76
2004-07-14 07:49:07 51°11.882 2°33.401 11.8 64 15.7 101680 77
2004-07-14 07:49:13 51°11.882 2°33.403 10.1 69 15.7 101680 77
2004-07-14 07:49:17 51°11.882 2°33.406 9.3 63 15.7 101680 77
2004-07-14 07:49:24 51°11.881 2°33.409 8.8 76 15.7 101680 77
2004-07-14 07:49:28 51°11.881 2°33.411 9.5 74 15.7 101670 76
2004-07-14 07:49:33 51°11.881 2°33.414 9 72 15.7 101670 76
2004-07-14 07:49:37 51°11.88 2°33.416 7.7 74 15.6 101680 76
2004-07-14 07:49:44 51°11.88 2°33.42 8.5 76 15.6 101680 76
2004-07-14 07:49:48 51°11.88 2°33.422 8.4 75 15.6 101670 76
2004-07-14 07:49:53 51°11.88 2°33.425 9 79 15.6 101670 76
2004-07-14 07:49:57 51°11.88 2°33.427 9.1 80 15.7 101680 77
2004-07-14 07:50:04 51°11.879 2°33.431 12.2 86 15.7 101680 77
2004-07-14 07:50:08 51°11.879 2°33.433 12.2 83 15.7 101680 77
2004-07-14 07:50:12 51°11.879 2°33.435 12.2 84 15.7 101680 77
2004-07-14 07:50:16 51°11.879 2°33.437 10.9 83 15.7 101680 77
2004-07-14 07:50:24 51°11.878 2°33.442 12.2 85 15.7 101680 77
2004-07-14 07:50:28 51°11.878 2°33.444 9.9 78 15.7 101680 77
2004-07-14 07:50:33 51°11.877 2°33.447 9.7 78 15.7 101680 77
2004-07-14 07:50:37 51°11.876 2°33.45 8 79 15.6 101670 77
2004-07-14 07:50:44 51°11.875 2°33.454 10.6 83 15.6 101670 77
2004-07-14 07:50:48 51°11.874 2°33.457 9.5 78 15.7 101680 77
2004-07-14 07:50:53 51°11.873 2°33.46 10.2 77 15.7 101680 77
2004-07-14 07:50:56 51°11.871 2°33.462 8.8 75 15.6 101670 76
2004-07-14 07:51:04 51°11.869 2°33.466 9.8 72 15.6 101670 76
2004-07-14 07:51:08 51°11.867 2°33.468 10.3 70 15.6 101670 77
2004-07-14 07:51:13 51°11.865 2°33.471 11.3 61 15.6 101670 77
2004-07-14 07:51:17 51°11.863 2°33.473 11.4 58 15.6 101670 77
2004-07-14 07:51:23 51°11.86 2°33.476 11.9 55 15.6 101670 77
2004-07-14 07:51:28 51°11.858 2°33.478 12.4 55 15.6 101670 77
2004-07-14 07:51:32 51°11.856 2°33.479 12.7 52 15.6 101670 77
2004-07-14 07:51:37 51°11.854 2°33.481 12.9 46 15.6 101670 77
2004-07-14 07:51:44 51°11.85 2°33.483 12.6 41 15.6 101670 77
2004-07-14 07:51:48 51°11.848 2°33.484 11.1 36 15.6 101670 77
2004-07-14 07:51:53 51°11.845 2°33.486 11.1 39 15.6 101670 77
2004-07-14 07:51:57 51°11.843 2°33.486 12.3 28 15.6 101660 77
2004-07-14 07:52:03 51°11.84 2°33.487 12.3 26 15.6 101660 77
2004-07-14 07:52:08 51°11.837 2°33.487 12.9 28 15.6 101650 77
2004-07-14 07:52:12 51°11.835 2°33.488 12.7 25 15.6 101650 77
2004-07-14 07:52:17 51°11.832 2°33.487 12.9 22 15.6 101660 77
2004-07-14 07:52:24 51°11.828 2°33.486 12.4 27 15.6 101660 77
2004-07-14 07:52:28 51°11.825 2°33.486 10.9 33 15.6 101660 77
2004-07-14 07:52:33 51°11.822 2°33.485 11.1 28 15.6 101660 77
2004-07-14 07:52:38 51°11.819 2°33.484 11.3 30 15.6 101680 76
2004-07-14 07:52:42 51°11.816 2°33.483 12.1 26 15.6 101680 76
2004-07-14 07:52:48 51°11.812 2°33.482 12.5 26 15.6 101680 77
2004-07-14 07:52:52 51°11.809 2°33.481 13.5 24 15.6 101680 77
2004-07-14 07:52:56 51°11.806 2°33.48 13.5 26 15.6 101680 77
2004-07-14 07:53:03 51°11.801 2°33.477 12.2 26 15.6 101680 77
2004-07-14 07:53:08 51°11.798 2°33.476 13.1 26 15.6 101670 77
2004-07-14 07:53:11 51°11.796 2°33.475 12.5 21 15.6 101670 77
2004-07-14 07:53:15 51°11.793 2°33.474 11.4 18 15.6 101680 77
2004-07-14 07:53:23 51°11.787 2°33.471 12.9 21 15.6 101680 77
2004-07-14 07:53:27 51°11.784 2°33.469 13.5 22 15.6 101670 76
2004-07-14 07:53:32 51°11.78 2°33.466 11.8 19 15.6 101670 76
2004-07-14 07:53:37 51°11.777 2°33.464 12.2 20 15.6 101670 76
2004-07-14 07:53:42 51°11.773 2°33.461 11.9 15 15.6 101670 76
2004-07-14 07:53:48 51°11.769 2°33.458 12.1 14 15.6 101670 77
2004-07-14 07:53:54 51°11.764 2°33.454 12.1 8 15.6 101670 77
2004-07-14 07:53:58 51°11.762 2°33.451 12.7 9 15.6 101670 76
2004-07-14 07:54:03 51°11.758 2°33.448 13.1 8 15.6 101670 76
2004-07-14 07:54:08 51°11.755 2°33.444 11.8 13 15.6 101680 76
2004-07-14 07:54:12 51°11.752 2°33.441 12.1 9 15.6 101680 76
2004-07-14 07:54:17 51°11.749 2°33.436 12.7 5 15.6 101670 76
2004-07-14 07:54:23 51°11.745 2°33.431 12.2 9 15.6 101670 76
2004-07-14 07:54:27 51°11.742 2°33.428 13.2 4 15.6 101680 76
2004-07-14 07:54:33 51°11.739 2°33.422 13.4 5 15.6 101680 76
2004-07-14 07:54:35 51°11.737 2°33.42 12.1 3 15.6 101670 76